Location: Newark
(52.2090°N, 4.1550°W)
Time: 07:12:06
(UTC+00:00)

Explorer 7 - Pass Details

Date: 25 September 2019
Orbit: 485 x 680 km, 50.3° (Epoch: 17 October)

Event Time Altitude Azimuth Distance (km) Brightness Sun altitude
Rises 00:30:58 0° 270° (W) 2,873 - -38.2°
Reaches altitude 10° 00:33:13 10° 268° (W) 1,998 - -38.2°
Maximum altitude 00:37:49 70° 185° (S) 693 - -38.1°
Drops below altitude 10° 00:42:38 10° 103° (ESE) 2,091 - -38.0°
Sets 00:45:02 0° 101° (E) 3,019 - -37.9°
